Other Surface Observations
Issued by NWS Jacksonville, FL

Home | Current Version | Previous Version | Text Only | Print | Product List | Glossary On
Versions: 1 2 3 4 5 6 7 8 9 10 11 12 13 14 15 16 17 18 19 20 21 22 23 24 25 26 27 28 29 30 31 32 33 34 35 36 37 38 39 40 41 42 43 44 45 46 47 48 49 50
000
SXUS52 KJAX 181410
OSOJAX
OTHER SURFACE OBSERVATIONS
NATIONAL WEATHER SERVICE JACKSONVILLE FL
1000 AM EDT FRI APR 18 2014

FLZ020>025-030>033-035>038-040-181500-
...FLORIDA...

CITY           SKY/WX    TMP DP  RH WIND       PRES   REMARKS
CECIL FIELD    CLOUDY    66  63  88 NE7       30.10F FOG
HERLONG FIELD  NOT AVBL
FERNANDINA BCH NOT AVBL
LAKE CITY      NOT AVBL
JUNIPER SPGS   NOT AVBL
BUNNELL        CLOUDY    72  66  83 E9        30.09S
KEYSTONE HGTS  PTSUNNY   68  64  88 E8        30.09S
$$

GAZ132>136-149>154-162>166-181500-
...GEORGIA...

CITY           SKY/WX    TMP DP  RH WIND       PRES   REMARKS
JESUP          RAIN      59  59 100 E9        30.21S
HOMERVILLE     RAIN      59  59 100 E7        30.16F
SWAINSBORO     RAIN      54  52  94 E6        30.27S
CORDELE        NOT AVBL
$$

PLEASE NOTE:  THESE OBSERVATIONS ARE NOT QUALITY CONTROLLED AND MAY
NOT BE AVAILABLE AT ALL TIMES.
$$



USA.gov is the U.S. government's official web portal to all federal, state and local government web resources and services.